User: anonymous   Login
Location: Unspecified
(0.0000°N, 0.0000°E)
Time: 18:02:21
(UTC+00:00)
Language:

OBJECT B - Orbit

View from above orbital plane
View from above orbital plane
View from above satellite
View from above satellite

Ground track
Ground track

The orbit is defined by the following mean orbital elements,

1 58503U          26145.55324764 +.00000000 +00000-0 +85285-3 0 00009
2 58503  97.3843 184.3594 0007081 220.1543 139.9212 16.00136173    09
Epoch (UTC): 25 May 2026 13:16:40
Eccentricity: 0.0007081
inclination: 97.3843°
perigee height: 269 km
apogee height: 279 km
right ascension of ascending node: 184.3594°
argument of perigee: 220.1543°
revolutions per day: 16.00136173
mean anomaly at epoch: 139.9212°

The dashed part of the orbit path shows where the satellite is in the earth's shadow,  

DLR